contact:dominique.lefevre@mio.osupytheas.fr, maurice.libes@osupytheas.fr, didier.mallarino@osupytheas.fr
Project:EMSO http://www.emso-fr.org/EMSO-France
Depth: 2436.0 m
Title:EMSO Ligure Ouest : Data MII capteur MICROCAT
DateTime_Computer,Latitude,Longitude,Temperature,Conductivity,Pressure,DateTime_Instrument
DateTime_Computer,Latitude,Longitude,degC,S m-1,dbar,DateTime_Instrument
2022-12-06T00:01:55Z,42.805,6.029,13.3021,4.60081,2470.567,2022-12-06T02:03:55Z
2022-12-06T00:04:58Z,42.805,6.029,13.3016,4.60081,2470.553,2022-12-06T02:06:58Z
2022-12-06T00:08:01Z,42.805,6.029,13.3024,4.60078,2470.577,2022-12-06T02:10:01Z
2022-12-06T00:11:04Z,42.805,6.029,13.3019,4.60077,2470.553,2022-12-06T02:13:04Z
2022-12-06T00:14:07Z,42.805,6.029,13.3025,4.60081,2470.6,2022-12-06T02:16:07Z
2022-12-06T00:17:10Z,42.805,6.029,13.3024,4.60086,2470.53,2022-12-06T02:19:10Z
2022-12-06T00:20:13Z,42.805,6.029,13.3025,4.60075,2470.553,2022-12-06T02:22:13Z
2022-12-06T00:23:16Z,42.805,6.029,13.3022,4.60080,2470.577,2022-12-06T02:25:16Z
2022-12-06T00:26:19Z,42.805,6.029,13.3019,4.60084,2470.539,2022-12-06T02:28:19Z
2022-12-06T00:29:22Z,42.805,6.029,13.3023,4.60084,2470.553,2022-12-06T02:31:22Z
2022-12-06T00:32:25Z,42.805,6.029,13.3023,4.60087,2470.553,2022-12-06T02:34:25Z
2022-12-06T00:35:29Z,42.805,6.029,13.3019,4.60079,2470.567,2022-12-06T02:37:29Z
2022-12-06T00:38:32Z,42.805,6.029,13.3019,4.60077,2470.553,2022-12-06T02:40:32Z
2022-12-06T00:41:35Z,42.805,6.029,13.3019,4.60082,2470.577,2022-12-06T02:43:35Z
2022-12-06T00:44:38Z,42.805,6.029,13.3024,4.60078,2470.567,2022-12-06T02:46:38Z
2022-12-06T00:47:41Z,42.805,6.029,13.3023,4.60081,2470.553,2022-12-06T02:49:41Z
2022-12-06T00:50:44Z,42.805,6.029,13.3026,4.60097,2470.53,2022-12-06T02:52:44Z
2022-12-06T00:53:47Z,42.805,6.029,13.3015,4.60079,2470.567,2022-12-06T02:55:47Z
2022-12-06T00:56:50Z,42.805,6.029,13.3017,4.60074,2470.577,2022-12-06T02:58:50Z
2022-12-06T00:59:53Z,42.805,6.029,13.3021,4.60074,2470.544,2022-12-06T03:01:53Z
2022-12-06T01:02:56Z,42.805,6.029,13.3019,4.60079,2470.577,2022-12-06T03:04:56Z
2022-12-06T01:05:59Z,42.805,6.029,13.3021,4.60078,2470.53,2022-12-06T03:07:59Z
2022-12-06T01:09:02Z,42.805,6.029,13.3019,4.60072,2470.567,2022-12-06T03:11:02Z
2022-12-06T01:12:05Z,42.805,6.029,13.3020,4.60090,2470.553,2022-12-06T03:14:05Z
2022-12-06T01:15:08Z,42.805,6.029,13.3019,4.60084,2470.577,2022-12-06T03:17:08Z
2022-12-06T01:18:11Z,42.805,6.029,13.3019,4.60079,2470.591,2022-12-06T03:20:11Z
2022-12-06T01:21:15Z,42.805,6.029,13.3021,4.60079,2470.577,2022-12-06T03:23:15Z
2022-12-06T01:24:18Z,42.805,6.029,13.3022,4.60097,2470.563,2022-12-06T03:26:18Z
2022-12-06T01:27:21Z,42.805,6.029,13.3022,4.60095,2470.6,2022-12-06T03:29:21Z
2022-12-06T01:30:24Z,42.805,6.029,13.3029,4.60099,2470.577,2022-12-06T03:32:24Z
2022-12-06T01:33:27Z,42.805,6.029,13.3026,4.60100,2470.586,2022-12-06T03:35:27Z
2022-12-06T01:36:30Z,42.805,6.029,13.3026,4.60092,2470.577,2022-12-06T03:38:30Z
2022-12-06T01:39:33Z,42.805,6.029,13.3016,4.60079,2470.586,2022-12-06T03:41:33Z
2022-12-06T01:42:36Z,42.805,6.029,13.3018,4.60086,2470.6,2022-12-06T03:44:36Z
2022-12-06T01:45:39Z,42.805,6.029,13.3018,4.60084,2470.6,2022-12-06T03:47:39Z
2022-12-06T01:48:42Z,42.805,6.029,13.3025,4.60077,2470.6,2022-12-06T03:50:42Z
2022-12-06T01:51:45Z,42.805,6.029,13.3021,4.60079,2470.6,2022-12-06T03:53:45Z
2022-12-06T01:54:48Z,42.805,6.029,13.3019,4.60077,2470.624,2022-12-06T03:56:48Z
2022-12-06T01:57:51Z,42.805,6.029,13.3021,4.60083,2470.637,2022-12-06T03:59:51Z
2022-12-06T02:00:54Z,42.805,6.029,13.3019,4.60079,2470.591,2022-12-06T04:02:54Z
2022-12-06T02:03:58Z,42.805,6.029,13.3024,4.60080,2470.591,2022-12-06T04:05:58Z
2022-12-06T02:07:01Z,42.805,6.029,13.3017,4.60087,2470.6,2022-12-06T04:09:01Z
2022-12-06T02:10:04Z,42.805,6.029,13.3024,4.60090,2470.6,2022-12-06T04:12:04Z
2022-12-06T02:13:07Z,42.805,6.029,13.3024,4.60083,2470.637,2022-12-06T04:15:07Z
2022-12-06T02:16:10Z,42.805,6.029,13.3028,4.60081,2470.624,2022-12-06T04:18:10Z
2022-12-06T02:19:13Z,42.805,6.029,13.3023,4.60086,2470.614,2022-12-06T04:21:13Z
2022-12-06T02:22:16Z,42.805,6.029,13.3024,4.60081,2470.646,2022-12-06T04:24:16Z
2022-12-06T02:25:19Z,42.805,6.029,13.3019,4.60077,2470.6,2022-12-06T04:27:19Z
2022-12-06T02:28:22Z,42.805,6.029,13.3027,4.60077,2470.661,2022-12-06T04:30:22Z
2022-12-06T02:31:25Z,42.805,6.029,13.3016,4.60085,2470.624,2022-12-06T04:33:25Z
2022-12-06T02:34:28Z,42.805,6.029,13.3022,4.60078,2470.646,2022-12-06T04:36:28Z
2022-12-06T02:37:31Z,42.805,6.029,13.3022,4.60082,2470.6,2022-12-06T04:39:31Z
2022-12-06T02:40:34Z,42.805,6.029,13.3022,4.60072,2470.6,2022-12-06T04:42:34Z
2022-12-06T02:43:37Z,42.805,6.029,13.3024,4.60088,2470.646,2022-12-06T04:45:37Z
2022-12-06T02:46:41Z,42.805,6.029,13.3015,4.60075,2470.6,2022-12-06T04:48:41Z
2022-12-06T02:49:44Z,42.805,6.029,13.3021,4.60089,2470.624,2022-12-06T04:51:44Z
2022-12-06T02:52:47Z,42.805,6.029,13.3026,4.60075,2470.624,2022-12-06T04:54:47Z
2022-12-06T02:58:53Z,42.805,6.029,13.3019,4.60074,2470.67,2022-12-06T05:00:53Z
2022-12-06T03:01:56Z,42.805,6.029,13.3022,4.60073,2470.646,2022-12-06T05:03:56Z
2022-12-06T03:04:59Z,42.805,6.029,13.3022,4.60079,2470.661,2022-12-06T05:06:59Z
2022-12-06T03:08:02Z,42.805,6.029,13.3023,4.60091,2470.61,2022-12-06T05:10:02Z
2022-12-06T03:11:05Z,42.805,6.029,13.3018,4.60074,2470.684,2022-12-06T05:13:05Z
2022-12-06T03:14:08Z,42.805,6.029,13.3019,4.60076,2470.646,2022-12-06T05:16:08Z
2022-12-06T03:17:11Z,42.805,6.029,13.3016,4.60087,2470.646,2022-12-06T05:19:11Z
2022-12-06T03:20:14Z,42.805,6.029,13.3027,4.60075,2470.67,2022-12-06T05:22:14Z
2022-12-06T03:23:17Z,42.805,6.029,13.3020,4.60084,2470.661,2022-12-06T05:25:17Z
2022-12-06T03:26:20Z,42.805,6.029,13.3024,4.60082,2470.707,2022-12-06T05:28:20Z
2022-12-06T03:29:23Z,42.805,6.029,13.3021,4.60074,2470.646,2022-12-06T05:31:23Z
2022-12-06T03:32:26Z,42.805,6.029,13.3025,4.60081,2470.67,2022-12-06T05:34:26Z
2022-12-06T03:35:29Z,42.805,6.029,13.3019,4.60076,2470.684,2022-12-06T05:37:30Z
2022-12-06T03:38:33Z,42.805,6.029,13.3021,4.60081,2470.707,2022-12-06T05:40:33Z
2022-12-06T03:41:36Z,42.805,6.029,13.3029,4.60098,2470.646,2022-12-06T05:43:36Z
2022-12-06T03:44:39Z,42.805,6.029,13.3025,4.60092,2470.707,2022-12-06T05:46:39Z
2022-12-06T03:47:42Z,42.805,6.029,13.3018,4.60079,2470.707,2022-12-06T05:49:42Z
2022-12-06T03:50:45Z,42.805,6.029,13.3020,4.60078,2470.693,2022-12-06T05:52:45Z
2022-12-06T03:53:48Z,42.805,6.029,13.3020,4.60079,2470.67,2022-12-06T05:55:48Z
2022-12-06T03:56:51Z,42.805,6.029,13.3018,4.60080,2470.67,2022-12-06T05:58:51Z
2022-12-06T03:59:54Z,42.805,6.029,13.3019,4.60074,2470.67,2022-12-06T06:01:54Z
2022-12-06T04:02:57Z,42.805,6.029,13.3020,4.60074,2470.717,2022-12-06T06:04:57Z
2022-12-06T04:06:00Z,42.805,6.029,13.3014,4.60079,2470.693,2022-12-06T06:08:00Z
2022-12-06T04:09:03Z,42.805,6.029,13.3022,4.60083,2470.717,2022-12-06T06:11:03Z
2022-12-06T04:12:06Z,42.805,6.029,13.3026,4.60081,2470.73,2022-12-06T06:14:06Z
2022-12-06T04:15:09Z,42.805,6.029,13.3025,4.60088,2470.693,2022-12-06T06:17:09Z
2022-12-06T04:18:12Z,42.805,6.029,13.3018,4.60075,2470.74,2022-12-06T06:20:12Z
2022-12-06T04:21:16Z,42.805,6.029,13.3019,4.60087,2470.73,2022-12-06T06:23:16Z
2022-12-06T04:24:19Z,42.805,6.029,13.3020,4.60076,2470.73,2022-12-06T06:26:19Z
2022-12-06T04:27:22Z,42.805,6.029,13.3021,4.60087,2470.67,2022-12-06T06:29:22Z
2022-12-06T04:30:25Z,42.805,6.029,13.3019,4.60076,2470.693,2022-12-06T06:32:25Z
2022-12-06T04:33:28Z,42.805,6.029,13.3021,4.60093,2470.693,2022-12-06T06:35:28Z
2022-12-06T04:36:31Z,42.805,6.029,13.3024,4.60084,2470.73,2022-12-06T06:38:31Z
2022-12-06T04:39:34Z,42.805,6.029,13.3022,4.60097,2470.74,2022-12-06T06:41:34Z
2022-12-06T04:42:37Z,42.805,6.029,13.3021,4.60096,2470.777,2022-12-06T06:44:37Z
2022-12-06T04:45:40Z,42.805,6.029,13.3017,4.60081,2470.707,2022-12-06T06:47:40Z
2022-12-06T04:48:43Z,42.805,6.029,13.3020,4.60077,2470.74,2022-12-06T06:50:43Z
2022-12-06T04:51:46Z,42.805,6.029,13.3021,4.60086,2470.693,2022-12-06T06:53:46Z
2022-12-06T04:54:49Z,42.805,6.029,13.3021,4.60087,2470.754,2022-12-06T06:56:49Z
2022-12-06T04:57:52Z,42.805,6.029,13.3016,4.60085,2470.717,2022-12-06T06:59:52Z
2022-12-06T05:00:55Z,42.805,6.029,13.3020,4.60077,2470.73,2022-12-06T07:02:55Z
2022-12-06T05:03:58Z,42.805,6.029,13.3016,4.60068,2470.74,2022-12-06T07:05:58Z
2022-12-06T05:07:02Z,42.805,6.029,13.3021,4.60085,2470.74,2022-12-06T07:09:02Z
2022-12-06T05:10:05Z,42.805,6.029,13.3026,4.60087,2470.754,2022-12-06T07:12:05Z
2022-12-06T05:13:08Z,42.805,6.029,13.3021,4.60092,2470.754,2022-12-06T07:15:08Z
2022-12-06T05:16:11Z,42.805,6.029,13.3021,4.60099,2470.717,2022-12-06T07:18:11Z
2022-12-06T05:19:14Z,42.805,6.029,13.3021,4.60079,2470.787,2022-12-06T07:21:14Z
2022-12-06T05:22:17Z,42.805,6.029,13.3031,4.60099,2470.763,2022-12-06T07:24:17Z
2022-12-06T05:25:20Z,42.805,6.029,13.3023,4.60082,2470.777,2022-12-06T07:27:20Z
2022-12-06T05:28:23Z,42.805,6.029,13.3025,4.60091,2470.763,2022-12-06T07:30:23Z
2022-12-06T05:31:26Z,42.805,6.029,13.3021,4.60095,2470.777,2022-12-06T07:33:26Z
2022-12-06T05:34:29Z,42.805,6.029,13.3022,4.60092,2470.777,2022-12-06T07:36:29Z
2022-12-06T05:37:32Z,42.805,6.029,13.3017,4.60082,2470.73,2022-12-06T07:39:32Z
2022-12-06T05:40:35Z,42.805,6.029,13.3019,4.60085,2470.754,2022-12-06T07:42:35Z
2022-12-06T05:43:38Z,42.805,6.029,13.3026,4.60082,2470.8,2022-12-06T07:45:38Z
2022-12-06T05:46:41Z,42.805,6.029,13.3021,4.60089,2470.777,2022-12-06T07:48:41Z
2022-12-06T05:49:45Z,42.805,6.029,13.3027,4.60086,2470.74,2022-12-06T07:51:45Z
2022-12-06T05:52:48Z,42.805,6.029,13.3029,4.60081,2470.763,2022-12-06T07:54:48Z
2022-12-06T05:55:51Z,42.805,6.029,13.3019,4.60079,2470.754,2022-12-06T07:57:51Z
2022-12-06T05:58:54Z,42.805,6.029,13.3022,4.60088,2470.75,2022-12-06T08:00:54Z
2022-12-06T06:01:57Z,42.805,6.029,13.3027,4.60090,2470.763,2022-12-06T08:03:57Z
2022-12-06T06:05:00Z,42.805,6.029,13.3021,4.60101,2470.763,2022-12-06T08:07:00Z
2022-12-06T06:08:03Z,42.805,6.029,13.3019,4.60077,2470.763,2022-12-06T08:10:03Z
2022-12-06T06:11:06Z,42.805,6.029,13.3018,4.60077,2470.74,2022-12-06T08:13:06Z
2022-12-06T06:14:09Z,42.805,6.029,13.3015,4.60074,2470.777,2022-12-06T08:16:09Z
2022-12-06T06:17:12Z,42.805,6.029,13.3020,4.60072,2470.754,2022-12-06T08:19:12Z
2022-12-06T06:20:15Z,42.805,6.029,13.3024,4.60084,2470.777,2022-12-06T08:22:15Z
2022-12-06T06:23:18Z,42.805,6.029,13.3020,4.60080,2470.81,2022-12-06T08:25:18Z
2022-12-06T06:26:21Z,42.805,6.029,13.3021,4.60081,2470.754,2022-12-06T08:28:21Z
2022-12-06T06:29:24Z,42.805,6.029,13.3021,4.60084,2470.8,2022-12-06T08:31:24Z
2022-12-06T06:32:27Z,42.805,6.029,13.3015,4.60082,2470.763,2022-12-06T08:34:27Z
2022-12-06T06:35:31Z,42.805,6.029,13.3017,4.60081,2470.763,2022-12-06T08:37:31Z
2022-12-06T06:38:34Z,42.805,6.029,13.3018,4.60074,2470.777,2022-12-06T08:40:34Z
2022-12-06T06:41:37Z,42.805,6.029,13.3022,4.60101,2470.763,2022-12-06T08:43:37Z
2022-12-06T06:44:40Z,42.805,6.029,13.3019,4.60089,2470.777,2022-12-06T08:46:40Z
2022-12-06T06:47:43Z,42.805,6.029,13.3021,4.60078,2470.787,2022-12-06T08:49:43Z
2022-12-06T06:50:46Z,42.805,6.029,13.3026,4.60087,2470.777,2022-12-06T08:52:46Z
2022-12-06T06:53:49Z,42.805,6.029,13.3025,4.60091,2470.74,2022-12-06T08:55:49Z
2022-12-06T06:56:52Z,42.805,6.029,13.3024,4.60092,2470.763,2022-12-06T08:58:52Z
2022-12-06T06:59:55Z,42.805,6.029,13.3026,4.60084,2470.74,2022-12-06T09:01:55Z
2022-12-06T07:02:58Z,42.805,6.029,13.3022,4.60081,2470.754,2022-12-06T09:04:58Z
2022-12-06T07:06:01Z,42.805,6.029,13.3026,4.60097,2470.754,2022-12-06T09:08:01Z
2022-12-06T07:09:04Z,42.805,6.029,13.3019,4.60095,2470.763,2022-12-06T09:11:04Z
2022-12-06T07:12:07Z,42.805,6.029,13.3026,4.60090,2470.754,2022-12-06T09:14:07Z
2022-12-06T07:15:10Z,42.805,6.029,13.3019,4.60084,2470.74,2022-12-06T09:17:10Z
2022-12-06T07:18:14Z,42.805,6.029,13.3026,4.60086,2470.763,2022-12-06T09:20:14Z
2022-12-06T07:21:17Z,42.805,6.029,13.3016,4.60081,2470.74,2022-12-06T09:23:17Z
2022-12-06T07:24:20Z,42.805,6.029,13.3019,4.60089,2470.787,2022-12-06T09:26:20Z
2022-12-06T07:27:23Z,42.805,6.029,13.3026,4.60091,2470.74,2022-12-06T09:29:23Z
2022-12-06T07:30:26Z,42.805,6.029,13.3018,4.60080,2470.763,2022-12-06T09:32:26Z
2022-12-06T07:33:29Z,42.805,6.029,13.3016,4.60084,2470.763,2022-12-06T09:35:29Z
2022-12-06T07:36:32Z,42.805,6.029,13.3019,4.60097,2470.74,2022-12-06T09:38:32Z
2022-12-06T07:39:35Z,42.805,6.029,13.3031,4.60094,2470.763,2022-12-06T09:41:35Z
2022-12-06T07:42:38Z,42.805,6.029,13.3031,4.60094,2470.777,2022-12-06T09:44:38Z
2022-12-06T07:45:41Z,42.805,6.029,13.3021,4.60093,2470.74,2022-12-06T09:47:41Z
2022-12-06T07:48:44Z,42.805,6.029,13.3019,4.60075,2470.74,2022-12-06T09:50:44Z
2022-12-06T07:51:47Z,42.805,6.029,13.3024,4.60079,2470.73,2022-12-06T09:53:47Z
2022-12-06T07:54:50Z,42.805,6.029,13.3019,4.60075,2470.763,2022-12-06T09:56:50Z
2022-12-06T07:57:53Z,42.805,6.029,13.3022,4.60088,2470.74,2022-12-06T09:59:53Z
2022-12-06T08:00:57Z,42.805,6.029,13.3015,4.60075,2470.754,2022-12-06T10:02:57Z
2022-12-06T08:04:00Z,42.805,6.029,13.3021,4.60087,2470.74,2022-12-06T10:06:00Z
2022-12-06T08:07:03Z,42.805,6.029,13.3026,4.60081,2470.754,2022-12-06T10:09:03Z
2022-12-06T08:10:06Z,42.805,6.029,13.3022,4.60095,2470.73,2022-12-06T10:12:06Z
2022-12-06T08:13:09Z,42.805,6.029,13.3019,4.60079,2470.717,2022-12-06T10:15:09Z
2022-12-06T08:16:12Z,42.805,6.029,13.3031,4.60086,2470.74,2022-12-06T10:18:12Z
2022-12-06T08:19:15Z,42.805,6.029,13.3021,4.60086,2470.754,2022-12-06T10:21:15Z
2022-12-06T08:22:18Z,42.805,6.029,13.3017,4.60081,2470.717,2022-12-06T10:24:18Z
2022-12-06T08:25:21Z,42.805,6.029,13.3026,4.60075,2470.717,2022-12-06T10:27:21Z
2022-12-06T08:28:24Z,42.805,6.029,13.3016,4.60076,2470.717,2022-12-06T10:30:24Z
2022-12-06T08:31:27Z,42.805,6.029,13.3015,4.60079,2470.73,2022-12-06T10:33:27Z
2022-12-06T08:34:30Z,42.805,6.029,13.3027,4.60103,2470.754,2022-12-06T10:36:30Z
2022-12-06T08:37:33Z,42.805,6.029,13.3026,4.60092,2470.73,2022-12-06T10:39:33Z
2022-12-06T08:40:37Z,42.805,6.029,13.3023,4.60092,2470.717,2022-12-06T10:42:37Z
2022-12-06T08:43:40Z,42.805,6.029,13.3017,4.60087,2470.717,2022-12-06T10:45:40Z
2022-12-06T08:46:43Z,42.805,6.029,13.3024,4.60097,2470.717,2022-12-06T10:48:43Z
2022-12-06T08:49:46Z,42.805,6.029,13.3019,4.60081,2470.717,2022-12-06T10:51:46Z
2022-12-06T08:52:49Z,42.805,6.029,13.3026,4.60091,2470.717,2022-12-06T10:54:49Z
2022-12-06T08:55:52Z,42.805,6.029,13.3021,4.60098,2470.754,2022-12-06T10:57:52Z
2022-12-06T08:58:55Z,42.805,6.029,13.3020,4.60097,2470.74,2022-12-06T11:00:55Z
2022-12-06T09:01:58Z,42.805,6.029,13.3023,4.60087,2470.717,2022-12-06T11:03:58Z
2022-12-06T09:05:01Z,42.805,6.029,13.3024,4.60099,2470.707,2022-12-06T11:07:01Z
2022-12-06T09:08:04Z,42.805,6.029,13.3021,4.60074,2470.693,2022-12-06T11:10:04Z
2022-12-06T09:11:07Z,42.805,6.029,13.3020,4.60088,2470.717,2022-12-06T11:13:07Z
2022-12-06T09:14:10Z,42.805,6.029,13.3021,4.60092,2470.67,2022-12-06T11:16:10Z
2022-12-06T09:17:13Z,42.805,6.029,13.3029,4.60084,2470.707,2022-12-06T11:19:13Z
2022-12-06T09:20:16Z,42.805,6.029,13.3025,4.60089,2470.693,2022-12-06T11:22:16Z
2022-12-06T09:23:20Z,42.805,6.029,13.3028,4.60099,2470.67,2022-12-06T11:25:20Z
2022-12-06T09:26:23Z,42.805,6.029,13.3022,4.60084,2470.73,2022-12-06T11:28:23Z
2022-12-06T09:29:26Z,42.805,6.029,13.3021,4.60082,2470.693,2022-12-06T11:31:26Z
2022-12-06T09:32:29Z,42.805,6.029,13.3023,4.60093,2470.67,2022-12-06T11:34:29Z
2022-12-06T09:35:32Z,42.805,6.029,13.3031,4.60092,2470.693,2022-12-06T11:37:32Z
2022-12-06T09:38:35Z,42.805,6.029,13.3014,4.60081,2470.707,2022-12-06T11:40:35Z
2022-12-06T09:41:38Z,42.805,6.029,13.3020,4.60086,2470.67,2022-12-06T11:43:38Z
2022-12-06T09:44:41Z,42.805,6.029,13.3021,4.60085,2470.707,2022-12-06T11:46:41Z
2022-12-06T09:47:44Z,42.805,6.029,13.3024,4.60085,2470.646,2022-12-06T11:49:44Z
2022-12-06T09:50:47Z,42.805,6.029,13.3021,4.60093,2470.693,2022-12-06T11:52:47Z
2022-12-06T09:53:50Z,42.805,6.029,13.3023,4.60083,2470.67,2022-12-06T11:55:50Z
2022-12-06T09:56:53Z,42.805,6.029,13.3022,4.60094,2470.707,2022-12-06T11:58:53Z
2022-12-06T09:59:56Z,42.805,6.029,13.3024,4.60094,2470.684,2022-12-06T12:01:56Z
2022-12-06T10:03:00Z,42.805,6.029,13.3027,4.60079,2470.684,2022-12-06T12:05:00Z
2022-12-06T10:06:03Z,42.805,6.029,13.3019,4.60081,2470.67,2022-12-06T12:08:03Z
2022-12-06T10:09:06Z,42.805,6.029,13.3014,4.60082,2470.684,2022-12-06T12:11:06Z
2022-12-06T10:12:09Z,42.805,6.029,13.3024,4.60085,2470.684,2022-12-06T12:14:09Z
2022-12-06T10:15:12Z,42.805,6.029,13.3020,4.60087,2470.67,2022-12-06T12:17:12Z
2022-12-06T10:18:15Z,42.805,6.029,13.3023,4.60081,2470.67,2022-12-06T12:20:15Z
2022-12-06T10:21:18Z,42.805,6.029,13.3023,4.60096,2470.693,2022-12-06T12:23:18Z
2022-12-06T10:24:21Z,42.805,6.029,13.3022,4.60090,2470.707,2022-12-06T12:26:21Z
2022-12-06T10:27:24Z,42.805,6.029,13.3026,4.60087,2470.661,2022-12-06T12:29:24Z
2022-12-06T10:30:27Z,42.805,6.029,13.3024,4.60094,2470.67,2022-12-06T12:32:27Z
2022-12-06T10:33:30Z,42.805,6.029,13.3029,4.60088,2470.707,2022-12-06T12:35:30Z
2022-12-06T10:36:33Z,42.805,6.029,13.3030,4.60092,2470.67,2022-12-06T12:38:33Z
2022-12-06T10:39:36Z,42.805,6.029,13.3023,4.60087,2470.646,2022-12-06T12:41:36Z
2022-12-06T10:42:39Z,42.805,6.029,13.3028,4.60095,2470.67,2022-12-06T12:44:39Z
2022-12-06T10:45:43Z,42.805,6.029,13.3024,4.60084,2470.646,2022-12-06T12:47:43Z
2022-12-06T10:48:46Z,42.805,6.029,13.3019,4.60089,2470.684,2022-12-06T12:50:46Z
2022-12-06T10:51:49Z,42.805,6.029,13.3024,4.60099,2470.684,2022-12-06T12:53:49Z
2022-12-06T10:54:52Z,42.805,6.029,13.3026,4.60092,2470.637,2022-12-06T12:56:52Z
2022-12-06T10:57:55Z,42.805,6.029,13.3024,4.60086,2470.646,2022-12-06T12:59:55Z
2022-12-06T11:00:58Z,42.805,6.029,13.3024,4.60092,2470.646,2022-12-06T13:02:58Z
2022-12-06T11:04:01Z,42.805,6.029,13.3023,4.60095,2470.661,2022-12-06T13:06:01Z
2022-12-06T11:07:04Z,42.805,6.029,13.3024,4.60095,2470.646,2022-12-06T13:09:04Z
2022-12-06T11:10:07Z,42.805,6.029,13.3022,4.60093,2470.707,2022-12-06T13:12:07Z
2022-12-06T11:13:10Z,42.805,6.029,13.3021,4.60101,2470.661,2022-12-06T13:15:10Z
2022-12-06T11:16:13Z,42.805,6.029,13.3024,4.60091,2470.624,2022-12-06T13:18:13Z
2022-12-06T11:19:16Z,42.805,6.029,13.3026,4.60096,2470.624,2022-12-06T13:21:16Z
2022-12-06T11:22:19Z,42.805,6.029,13.3024,4.60093,2470.646,2022-12-06T13:24:19Z
2022-12-06T11:25:22Z,42.805,6.029,13.3026,4.60080,2470.646,2022-12-06T13:27:22Z
2022-12-06T11:28:26Z,42.805,6.029,13.3022,4.60080,2470.661,2022-12-06T13:30:26Z
2022-12-06T11:31:29Z,42.805,6.029,13.3023,4.60104,2470.661,2022-12-06T13:33:29Z
2022-12-06T11:34:32Z,42.805,6.029,13.3019,4.60094,2470.661,2022-12-06T13:36:32Z
2022-12-06T11:37:35Z,42.805,6.029,13.3022,4.60094,2470.6,2022-12-06T13:39:35Z
2022-12-06T11:40:38Z,42.805,6.029,13.3023,4.60077,2470.624,2022-12-06T13:42:38Z
2022-12-06T11:43:41Z,42.805,6.029,13.3014,4.60078,2470.646,2022-12-06T13:45:41Z
2022-12-06T11:46:44Z,42.805,6.029,13.3021,4.60084,2470.624,2022-12-06T13:48:44Z
2022-12-06T11:49:47Z,42.805,6.029,13.3018,4.60082,2470.646,2022-12-06T13:51:47Z
2022-12-06T11:52:50Z,42.805,6.029,13.3013,4.60084,2470.6,2022-12-06T13:54:50Z
2022-12-06T11:55:53Z,42.805,6.029,13.3019,4.60086,2470.637,2022-12-06T13:57:53Z
2022-12-06T11:58:56Z,42.805,6.029,13.3024,4.60075,2470.646,2022-12-06T14:00:56Z
2022-12-06T12:01:59Z,42.805,6.029,13.3015,4.60076,2470.614,2022-12-06T14:03:59Z
2022-12-06T12:05:02Z,42.805,6.029,13.3021,4.60081,2470.624,2022-12-06T14:07:03Z
2022-12-06T12:08:06Z,42.805,6.029,13.3015,4.60084,2470.637,2022-12-06T14:10:06Z
2022-12-06T12:11:09Z,42.805,6.029,13.3019,4.60094,2470.614,2022-12-06T14:13:09Z
2022-12-06T12:14:12Z,42.805,6.029,13.3020,4.60078,2470.637,2022-12-06T14:16:12Z
2022-12-06T12:17:15Z,42.805,6.029,13.3017,4.60077,2470.614,2022-12-06T14:19:15Z
2022-12-06T12:20:18Z,42.805,6.029,13.3017,4.60091,2470.614,2022-12-06T14:22:18Z
2022-12-06T12:23:21Z,42.805,6.029,13.3018,4.60077,2470.624,2022-12-06T14:25:21Z
2022-12-06T12:26:24Z,42.805,6.029,13.3020,4.60081,2470.6,2022-12-06T14:28:24Z
2022-12-06T12:29:27Z,42.805,6.029,13.3019,4.60092,2470.624,2022-12-06T14:31:27Z
2022-12-06T12:32:30Z,42.805,6.029,13.3021,4.60082,2470.6,2022-12-06T14:34:30Z
2022-12-06T12:35:33Z,42.805,6.029,13.3019,4.60081,2470.6,2022-12-06T14:37:33Z
2022-12-06T12:38:36Z,42.805,6.029,13.3023,4.60076,2470.6,2022-12-06T14:40:36Z
2022-12-06T12:41:39Z,42.805,6.029,13.3016,4.60073,2470.6,2022-12-06T14:43:39Z
2022-12-06T12:44:42Z,42.805,6.029,13.3021,4.60090,2470.637,2022-12-06T14:46:42Z
2022-12-06T12:47:46Z,42.805,6.029,13.3015,4.60085,2470.614,2022-12-06T14:49:46Z
2022-12-06T12:50:49Z,42.805,6.029,13.3014,4.60074,2470.624,2022-12-06T14:52:49Z
2022-12-06T12:53:52Z,42.805,6.029,13.3019,4.60077,2470.614,2022-12-06T14:55:52Z
2022-12-06T12:56:55Z,42.805,6.029,13.3019,4.60081,2470.577,2022-12-06T14:58:55Z
2022-12-06T12:59:58Z,42.805,6.029,13.3023,4.60084,2470.624,2022-12-06T15:01:58Z
2022-12-06T13:03:01Z,42.805,6.029,13.3015,4.60074,2470.614,2022-12-06T15:05:01Z
2022-12-06T13:06:04Z,42.805,6.029,13.3019,4.60082,2470.646,2022-12-06T15:08:04Z
2022-12-06T13:09:07Z,42.805,6.029,13.3014,4.60090,2470.614,2022-12-06T15:11:07Z
2022-12-06T13:12:10Z,42.805,6.029,13.3016,4.60097,2470.6,2022-12-06T15:14:10Z
2022-12-06T13:15:13Z,42.805,6.029,13.3021,4.60075,2470.614,2022-12-06T15:17:13Z
2022-12-06T13:18:16Z,42.805,6.029,13.3020,4.60076,2470.624,2022-12-06T15:20:16Z
2022-12-06T13:21:19Z,42.805,6.029,13.3022,4.60079,2470.6,2022-12-06T15:23:19Z
2022-12-06T13:24:22Z,42.805,6.029,13.3019,4.60080,2470.624,2022-12-06T15:26:22Z
2022-12-06T13:27:25Z,42.805,6.029,13.3021,4.60079,2470.6,2022-12-06T15:29:25Z
2022-12-06T13:30:28Z,42.805,6.029,13.3022,4.60074,2470.6,2022-12-06T15:32:29Z
2022-12-06T13:33:32Z,42.805,6.029,13.3024,4.60074,2470.591,2022-12-06T15:35:32Z
2022-12-06T13:36:35Z,42.805,6.029,13.3022,4.60081,2470.637,2022-12-06T15:38:35Z
2022-12-06T13:39:38Z,42.805,6.029,13.3019,4.60072,2470.624,2022-12-06T15:41:38Z
2022-12-06T13:42:41Z,42.805,6.029,13.3017,4.60086,2470.624,2022-12-06T15:44:41Z
2022-12-06T13:45:44Z,42.805,6.029,13.3022,4.60084,2470.637,2022-12-06T15:47:44Z
2022-12-06T13:48:47Z,42.805,6.029,13.3022,4.60075,2470.661,2022-12-06T15:50:47Z
2022-12-06T13:51:50Z,42.805,6.029,13.3019,4.60081,2470.646,2022-12-06T15:53:50Z
2022-12-06T13:54:53Z,42.805,6.029,13.3024,4.60081,2470.637,2022-12-06T15:56:53Z
2022-12-06T13:57:56Z,42.805,6.029,13.3017,4.60090,2470.6,2022-12-06T15:59:56Z
2022-12-06T14:00:59Z,42.805,6.029,13.3024,4.60078,2470.614,2022-12-06T16:02:59Z
2022-12-06T14:04:02Z,42.805,6.029,13.3019,4.60077,2470.624,2022-12-06T16:06:02Z
2022-12-06T14:07:05Z,42.805,6.029,13.3021,4.60075,2470.624,2022-12-06T16:09:05Z
2022-12-06T14:10:08Z,42.805,6.029,13.3015,4.60074,2470.661,2022-12-06T16:12:08Z
2022-12-06T14:13:12Z,42.805,6.029,13.3021,4.60073,2470.637,2022-12-06T16:15:12Z
2022-12-06T14:16:15Z,42.805,6.029,13.3015,4.60075,2470.646,2022-12-06T16:18:15Z
2022-12-06T14:19:18Z,42.805,6.029,13.3020,4.60084,2470.646,2022-12-06T16:21:18Z
2022-12-06T14:22:21Z,42.805,6.029,13.3026,4.60091,2470.624,2022-12-06T16:24:21Z
2022-12-06T14:25:24Z,42.805,6.029,13.3017,4.60099,2470.646,2022-12-06T16:27:24Z
2022-12-06T14:28:27Z,42.805,6.029,13.3030,4.60091,2470.646,2022-12-06T16:30:27Z
2022-12-06T14:31:30Z,42.805,6.029,13.3017,4.60086,2470.624,2022-12-06T16:33:30Z
2022-12-06T14:34:33Z,42.805,6.029,13.3015,4.60088,2470.624,2022-12-06T16:36:33Z
2022-12-06T14:37:36Z,42.805,6.029,13.3019,4.60098,2470.637,2022-12-06T16:39:36Z
2022-12-06T14:40:39Z,42.805,6.029,13.3024,4.60086,2470.646,2022-12-06T16:42:39Z
2022-12-06T14:43:42Z,42.805,6.029,13.3015,4.60074,2470.6,2022-12-06T16:45:42Z
2022-12-06T14:46:45Z,42.805,6.029,13.3021,4.60106,2470.624,2022-12-06T16:48:45Z
2022-12-06T14:49:48Z,42.805,6.029,13.3021,4.60086,2470.661,2022-12-06T16:51:48Z
2022-12-06T14:52:52Z,42.805,6.029,13.3014,4.60080,2470.67,2022-12-06T16:54:52Z
2022-12-06T14:55:55Z,42.805,6.029,13.3023,4.60076,2470.624,2022-12-06T16:57:55Z
2022-12-06T14:58:58Z,42.805,6.029,13.3024,4.60078,2470.624,2022-12-06T17:00:58Z
2022-12-06T15:02:01Z,42.805,6.029,13.3019,4.60071,2470.684,2022-12-06T17:04:01Z
2022-12-06T15:05:04Z,42.805,6.029,13.3024,4.60080,2470.646,2022-12-06T17:07:04Z